Regional Weather Roundup
Issued by NWS

Home | Current Version | Previous Version | Text Only | Print | Product List | Glossary On
Versions: 1 2 3 4 5 6 7 8 9 10 11 12 13 14 15 16 17 18 19 20 21 22 23 24 25 26 27 28 29 30 31 32 33 34 35 36 37 38 39 40 41 42 43 44 45 46 47 48 49 50
000
ASUS44 KEWX 261110
RWRTX
SOUTH TEXAS REGIONAL WEATHER ROUNDUP
NATIONAL WEATHER SERVICE AUSTIN/SAN ANTONIO TX
500 AM CST FRI DEC 26 2014

NOTE: "FAIR" INDICATED FEW OR NO CLOUDS BELOW 12,000 FEET WITH NO
SIGNIFICANT WEATHER AND/OR OBSTRUCTIONS TO VISIBILITY.

* - THESE STATIONS ARE NOT NWS OR FAA STATIONS...AND ARE NOT SUBJECT
    TO NWS AND FAA QUALITY CONTROL.

TXZ171-172-183>190-261200-
TEXAS HILL COUNTRY AND EDWARDS PLATEAU

CITY           SKY/WX    TMP DP  RH WIND       PRES   REMARKS
JUNCTION       CLOUDY    55  48  77 S12       29.87F
*LLANO         CLOUDY    61  52  72 S12G21    29.93F
BURNET         CLOUDY    56  50  80 S14       29.92F
*HORSESHOE BAY CLOUDY    58  50  77 S8        29.91F
*KERRVILLE     CLOUDY    54  51  89 S9        29.93F
*FREDERICKSBRG CLOUDY    56  51  82 S9        29.91F
*ROCKSPRINGS   CLOUDY    52  48  87 S17G23    29.90F
*BOERNE STAGE  CLOUDY    54  48  82 S6        29.94F
HONDO          CLOUDY    54  48  80 CALM      29.95F
*UVALDE        MOCLDY    50  47  90 E6        29.93F WCI  48
DEL RIO        CLOUDY    49  45  86 E9        29.87F WCI  45
LAUGHLIN AFB   NOT AVBL
CARRIZO SPRGS  PTCLDY    43  43 100 E5        29.90F WCI  40
$$

TXZ173-191>194-202-209-217>225-228-261200-
CENTRAL AND SOUTH CENTRAL TEXAS

CITY           SKY/WX    TMP DP  RH WIND       PRES   REMARKS
GEORGETOWN     MOCLDY    55  52  88 S9        29.91F
AUSTIN/BERGSTM MOCLDY    55  51  86 S7        29.93F
AUSTIN/MABRY   PTCLDY    53  50  89 CALM      29.94F
*AUSTIN/EXEC   CLOUDY    55  52  88 S9        29.93F
*LAGO VISTA    MOCLDY    56  52  85 S13       29.93S
SAN MARCOS     CLOUDY    54  48  82 S6        29.94F
NEW BRAUNFELS  CLOUDY    55  50  83 CALM      29.93F
RANDOLPH AFB   CLOUDY    54  49  83 NE1       29.94F
PT SAN ANTONIO CLOUDY    55  50  82 CALM      29.92S
SAN ANTONIO    CLOUDY    56  50  80 CALM      29.94F
STINSON FIELD  CLOUDY    57  50  77 CALM      29.93S
*PLEASANTON    CLOUDY    58  52  79 E5        29.93F
*LA GRANGE     MOCLDY    60  57  91 SE7       29.94F
*GIDDINGS      CLOUDY    59  54  83 S9        29.99S
*GONZALES      CLOUDY    59  55  88 SE8       29.93F
$$

TXZ163>164-176>182-195>201-210>213-226-227-235-261200-
SOUTHEAST TEXAS

CITY           SKY/WX    TMP DP  RH WIND       PRES   REMARKS
COLLEGE STN    CLOUDY    58  51  78 S9        29.97F
*BRYAN         CLOUDY    58  52  80 S7        29.98F
*CALDWELL      CLOUDY    57  54  88 SE12      29.98F
*CROCKETT      CLOUDY    55  54  94 SE7       30.03F
*BRENHAM       MOCLDY    58  53  83 SE7       29.99F
HUNTSVILLE     CLOUDY    59  52  77 S7        29.99F
CONROE         CLOUDY    56  51  84 SE3       30.01F
HOUSTON BUSH   CLOUDY    62  55  77 SE7       30.00F
HOUSTON HOBBY  LGT RAIN  63  57  81 S3        30.01S
*HOUSTON SW AP CLOUDY    58  55  88 E10       30.01S
PEARLAND       CLOUDY    64  57  78 S6        30.02F
HOUSTON HOOKS  CLOUDY    58  52  80 CALM      30.00F
ELLINGTON FLD  NOT AVBL
SUGAR LAND     CLOUDY    60  54  80 SE6       30.00F
*HOUSTON EXEC  CLOUDY    59  54  82 SE5       30.01S
*CLEVELAND MUN CLOUDY    54  52  95 CALM      30.03F
*WHARTON       CLOUDY    60  57  90 SE6       29.99F
*COLUMBUS      CLOUDY    55  53  92 CALM      29.97F
$$

TXZ214>216-236>238-261200-
THE UPPER TEXAS COAST

CITY           SKY/WX    TMP DP  RH WIND       PRES   REMARKS
*ORANGE        CLOUDY    60  55  83 SE8       30.07S
PORT ARTHUR    CLOUDY    63  56  78 SE12      30.04S
GALVESTON      CLOUDY    63  60  90 S12       30.03S
ANGLETON       CLOUDY    64  57  78 S9        30.00F
*BAY CITY        N/A     65  60  85 S7        29.99S
PALACIOS       NOT AVBL
$$

TXZ229>234-239>247-261200-
TEXAS COASTAL BEND AND RIO GRANDE PLAINS

CITY           SKY/WX    TMP DP  RH WIND       PRES   REMARKS
VICTORIA       CLOUDY    63  59  87 SE7       29.95F
*BEEVILLE      CLOUDY    63  59  86 S7        29.93S
ROCKPORT       CLOUDY    67  60  78 SE8       29.94F
*PORT ARANSAS  CLOUDY    65  61  85 S13       29.93S
*PORT LAVACA   CLOUDY    63  60  90 SE6       29.96F
*INGLESIDE     CLOUDY    67  60  76 S14G20    29.92F
CORPUS CHRISTI CLOUDY    66  60  81 S18       29.92F
CORPUS NAS     CLOUDY    66  62  87 S17       29.92F
*ROBSTOWN      NOT AVBL
ALICE          CLOUDY    64  59  83 S10       29.91S
KINGSVILLE NAS CLOUDY    64  63  96 SE16      29.91F
COTULLA        CLOUDY   N/A N/A N/A CALM      29.92S
LAREDO         NOT AVBL
$$

TXZ248>255-261200-
DEEP SOUTH TEXAS

CITY           SKY/WX    TMP DP  RH WIND       PRES   REMARKS
BROWNSVILLE    CLOUDY    65  63  93 SE16      29.91F
PORT ISABEL    CLOUDY    65  62  90 S16       29.91F
*SOUTH PADRE   CLOUDY    64  64 100 E12       29.92F
HARLINGEN      CLOUDY    66  62  87 S15       29.91S
*HEBBRONVILLE  PTCLDY    57  55  93 SE6       29.89F
MCALLEN        MOCLDY    64  58  80 SE16      29.91F
*WESLACO       CLOUDY    65  58  79 S8        29.90F
FALFURRIAS     CLOUDY    63  60  90 SE12      29.90S
EDINBURG       CLOUDY    67  59  77 SE9       29.91F
*ZAPATA        CLEAR     54  53  99 CALM      29.88S
$$

TXZ213>215-236>238-242>244-246-247-251-254-255-261200-
CMAN STATIONS

STATION/POSITION TIME  TEMP    WIND        PRES    WAVE
                       AIR SEA DIR/SP/G            HT/PER
                 (UTC) (F)     (DEG/KT/KT) (MB)    (FT/S)
SABINE PASS      1100   62 60  150/ 10/ 12 1017.3
SEA RIM ST PARK  1100   61     150/  8/ 10 1017.8
NORTH JETTY/GLS  1100   64 62  190/ 13/ 16   N/A
EAGLE POINT      1100   61 56  170/  6/  7 1016.4
MORGANS POINT    1100   60     130/  2/  4 1016.2
MISSION/ARANSAS  1000   64     160/  9     1015.0
PORT O`CONNOR    1100          150/ 15/ 16   N/A
PORT ARANSAS     1100   66 60  150/ 17/ 18 1013.7
MALAQUITE BEACH  1100   66 62  140/ 20/ 22 1012.7
BAFFIN BAY       1100   63     160/ 13/ 17 1013.4
PORT ISABEL      1100   65 60  160/ 11/ 15 1013.3
$$

GMZ080-GMZ150>470-261200-
OFFSHORE BUOY REPORTS

STATION/POSITION TIME  TEMP    WIND        PRES    WAVE
                       AIR SEA DIR/SP/G            HT/PER
                 (UTC) (F)     (DEG/KT/KT) (MB)    (FT/S)
20 E GALVESTON   1100   65 60  150/ 16/ 19 1015.9    7/ 7
90 E PT ARANSAS  1100   70 72  160/ 21/ 25 1015.2    8/ 7
35 NE PT MANSFLD 1100   69 72  160/ 19/ 25 1013.3    8/ 7
200 E PT ISABEL  1100   71 73  170/ 16/ 17 1017.1    5/ 6
$$


USA.gov is the U.S. government's official web portal to all federal, state and local government web resources and services.